Location: Oberkirch
(48.5323°N, 8.0787°E)
Time: 15:23:56
(UTC+00:00)

Tiros 1 despin weight - Pass Details

Date: 15 February 2026
Orbit: 556 x 593 km, 48.2° (Epoch: 5 March)

Event Time Altitude Azimuth Distance (km) Brightness Sun altitude
Rises 18:40:24 0° 274° (W) 2,734 ? -19.0°
Reaches altitude 10° 18:42:39 10° 273° (W) 1,839 ? -19.4°
Maximum altitude 18:46:51 84° 185° (S) 565 ? -20.1°
Enters shadow 18:47:38 58° 106° (ESE) 653 ? -20.2°
